Regional Weather Roundup
Issued by NWS Midland/Odessa, TX

Skip options and go directly to product.
Home | Oldest Version | Next Version | Current Version | All | Text Only | Save Text | Print | Product List | Glossary On

Skip product version selection by date and time.   
054
ASUS44 KMAF 221102
RWRMAF
MIDLAND AREA WEATHER ROUNDUP
NATIONAL WEATHER SERVICE MIDLAND TX
600 AM CDT TUE APR 22 2014

...IN SOUTHWEST TEXAS AND SOUTHEAST NEW MEXICO...

CITY           SKY/WX    TMP DP  RH WIND       PRES   REMARKS
ALPINE         CLEAR     50  39  66 CALM      30.19S
ANDREWS        FAIR      58  52  80 SE3       30.14S
ARTESIA        CLEAR     57  48  72 CALM      30.16R
BIG SPRING     CLEAR     56  49  75 E3        30.13S
CARLSBAD       CLEAR     59  48  67 S5        30.13S
DRYDEN           N/A     70  63  78 E6        30.05S
FORT STOCKTON  CLEAR     63  60  90 SE6       30.09F
GUAD PASS      CLEAR     57  47  69 NE35G41   30.18S
HOBBS          NOT AVBL
MARFA          CLEAR     52  37  58 E8        30.18R
MIDLAND AIRPK  CLEAR     64  53  69 E7        30.12S
MIDLAND INTL   CLEAR     62  53  72 E9        30.10F
ODESSA         CLEAR     61  53  75 E7        30.11F
PECOS          CLEAR     62  52  69 E7        30.09S
PRESIDIO       FAIR      71  49  44 NE9       30.04R
SEMINOLE       CLEAR     56  50  81 CALM      30.16R
SNYDER         CLEAR     58  53  81 CALM      30.11F
WINK           CLEAR     65  52  62 E8        30.09R
$$
...OTHER STATIONS IN TEXAS...

CITY           SKY/WX    TMP DP  RH WIND       PRES   REMARKS
ABILENE        CLEAR     59  53  80 E3        30.08S
AMARILLO       PTCLDY    54  44  69 SE9       30.16S
AUSTIN         PTCLDY    60  57  89 S3        29.98R
BROWNSVILLE    PTCLDY    68  67  96 CALM      29.96R
CORPUS CHRISTI PTCLDY    68  65  90 CALM      29.96F
DALLAS FTW     CLEAR     62  59  90 NW7       30.01S
DEL RIO        CLEAR     64  62  93 NE7       30.01R
EL PASO        PTCLDY    67  41  38 VRB5      30.08S
HOUSTON INT    MOCLDY    68  65  90 SW5       29.97S
LUBBOCK        PTCLDY    53  48  83 E5        30.14S
SAN ANGELO     CLEAR     56  52  86 S5        30.07S
SAN ANTONIO    PTCLDY    64  62  93 W3        30.00R
WACO           FOG       60  60 100 CALM      30.01R VSB 1/4
WICHITA FALLS  NOT AVBL
$$
...OTHER LOCATIONS IN NEW MEXICO...

CITY           SKY/WX    TMP DP  RH WIND       PRES   REMARKS
ALAMAGORDO     CLEAR     52  36  54 S5        30.11R
ALBUQUERQUE    MOCLDY    62  37  39 E14       30.15F
CANNON AFB     CLEAR     52  46  78 SE2       30.18F
CLOVIS         CLEAR     48  41  76 CALM      30.20F
HOLLOMAN AFB   PTCLDY    59  36  42 W5        30.09R
ROSWELL        CLEAR     57  46  66 S7        30.16S
RUIDOSO        PTCLDY    48  39  71 SE5       30.31S
SANTA FE       PTCLDY    54  38  54 SE14G22   30.22S
TRUTH OR CONSE CLEAR     53  36  52 W7        30.11R
TUCUMCARI      CLEAR     57  44  62 CALM      30.17R
$$

USA.gov is the U.S. government's official web portal to all federal, state and local government web resources and services.